Tracking 30101 objects as of 13-Dec-2024
HD Live streaming from Space Station
objects crossing your sky now

STARLINK-5841

Track STARLINK-5841 now!
10-day predictions
STARLINK-5841 is classified as:


NORAD ID: 56493
Int'l Code: 2023-064AX
Perigee: 579.6 km
Apogee: 583.7 km
Inclination: 70.0 °
Period: 96.2 minutes
Semi major axis: 6952 km
RCS: Unknown
Launch date: May 10, 2023
Source: United States (US)
Launch site: AIR FORCE WESTERN TEST RANGE (AFWTR)
Your satellite tracking list
Your tracking list is empty




NASA's NSSDC Master Catalog

Two Line Element Set (TLE):
1 56493U 23064AX  24348.15264264  .00000216  00000-0  26396-4 0  9992
2 56493  69.9993 142.7811 0002952 269.3812  90.7008 14.97521176 89450
Source of the keplerian elements: AFSPC